sat.trackr.live / text

‹ back to catalog

STARLINK-37182

NORAD 68348 · 2026-059AD

PAYLOAD ACTIVE UNKNOWN

§ Identity

Operator
Country
US
Launch date
2026-03-22
Launch site
AFETR
Launch vehicle
Mass (kg)
RCS (m²)

Purposes: comms

External: N2YO · Heavens-Above · Gunter

§ Orbital elements

Epoch: 2026-09-20T00:14:56.965920Z

Period
93.85 min
Inclination
53.1572°
Eccentricity
0.0001431
Mean motion
15.34399703 rev/d
Perigee alt
461.7 km
Apogee alt
463.7 km
Semi-major
6,840.8 km
B*
3.9252e-4
RAAN
158.0734°
Arg perigee
66.1352°
Mean anomaly
293.9801°
Rev number
2,803

§ Raw data

STARLINK-371821 68348U 26059AD  26263.01038155  .00012909  00000+0  39252-3 0  99972 68348  53.1572 158.0734 0001431  66.1352 293.9801 15.34399703 28033

JSON: /api/v1/satellites/68348 · /tle

For live sub-satellite position, see the globe view (requires WebGL).

§ Visibility from observer

Set your observer location to see the next 7 days of passes ≥ 10°. The values pass through the URL so the page stays shareable.

No JS? Fill the form by hand. The geolocation button needs JavaScript.